DW4604 Weather Reports


time (UTC)temp
C
wind
direction
speed
KPH
gust
KPH
rain 1hr
cm
rain 24hr
cm
rain mn
cm
humidity
%
barometer
mb
20260507203447 12 0 0.0 0.0 0.03 0.99 0.99 93 1012.5
20260507202947 12 0 0.0 0.0 0.03 0.99 0.99 93 1012.4
20260507201947 12 0 0.0 0.0 0.00 0.97 0.97 93 1012.4
20260507201447 12 0 0.0 0.0 0.00 0.97 0.97 93 1012.4
20260507200947 12 0 0.0 0.0 0.00 0.97 0.97 93 1012.4
20260507200448 12 0 0.0 0.0 0.00 0.97 0.97 93 1012.7
20260507195947 12 0 0.0 0.0 0.00 0.97 0.97 93 1012.9
20260507195446 12 0 0.0 0.0 0.00 0.97 0.97 93 1012.8
20260507194947 12 0 0.0 0.0 0.00 0.97 0.97 93 1012.7
20260507194447 12 0 0.0 0.0 0.00 0.97 0.97 93 1012.6
20260507192947 12 0 0.0 0.0 0.08 0.97 0.97 92 1012.2
20260507192447 12 0 0.0 0.0 0.15 0.97 0.97 92 1012.0
20260507191947 12 0 0.0 0.0 0.23 0.97 0.97 92 1011.9
20260507191448 12 0 0.0 0.0 0.38 0.97 0.97 92 1011.9
20260507190947 12 0 0.0 0.0 0.51 0.97 0.97 92 1011.9
20260507190448 12 0 0.0 0.0 0.51 0.97 0.97 92 1011.9
20260507185448 12 0 0.0 0.0 0.51 0.97 0.97 92 1012.0
20260507184947 12 0 0.0 0.0 0.51 0.97 0.97 92 1012.0
20260507184447 12 0 0.0 0.0 0.51 0.97 0.97 92 1011.9
20260507183948 12 0 0.0 0.0 0.51 0.94 0.94 92 1011.8
20260507182947 12 0 0.0 0.0 0.43 0.86 0.86 91 1011.8
20260507182448 12 0 0.0 0.0 0.43 0.81 0.81 91 1011.9
20260507181948 12 0 0.0 0.0 0.30 0.69 0.69 91 1011.9
20260507180448 13 0 0.0 0.0 0.43 0.43 0.43 91 1011.5
20260507175447 13 0 0.0 0.0 0.43 0.43 0.43 90 1010.6
20260507174947 13 0 0.0 0.0 0.43 0.43 0.43 90 1010.5
20260507174449 13 0 0.0 0.0 0.43 0.43 0.43 89 1010.4
20260507173947 13 0 0.0 0.0 0.43 0.43 0.43 89 1010.3
20260507173447 13 0 0.0 0.0 0.43 0.43 0.43 88 1010.2
20260507172947 13 0 0.0 0.0 0.43 0.43 0.43 88 1010.2
20260507172447 13 0 0.0 0.0 0.41 0.41 0.41 87 1010.1
20260507171948 13 0 0.0 0.0 0.38 0.38 0.38 87 1010.1
20260507170947 15 0 0.0 0.0 0.05 0.05 0.05 84 1010.3
20260507170448 15 0 0.0 0.0 0.00 0.00 0.00 83 1010.1
20260507165948 15 0 0.0 0.0 0.00 0.00 0.00 82 1009.9
20260507165449 15 0 0.0 0.0 0.00 0.00 0.00 82 1009.7
20260507164949 15 0 0.0 0.0 0.00 0.00 0.00 81 1009.6
20260507164448 15 0 0.0 0.0 0.00 0.00 0.00 81 1009.7
20260507163947 16 0 0.0 0.0 0.00 0.00 0.00 81 1009.9
20260507163447 16 0 0.0 0.0 0.00 0.00 0.00 81 1009.9
20260507161948 16 0 0.0 0.0 0.00 0.00 0.00 78 1009.4
20260507161450 17 0 0.0 0.0 0.00 0.00 0.00 77 1009.4
20260507160949 17 0 0.0 0.0 0.00 0.00 0.00 76 1009.4
20260507160447 18 0 0.0 0.0 0.00 0.00 0.00 72 1009.4
20260507155947 18 0 0.0 0.0 0.00 0.00 0.00 69 1009.4
20260507155447 18 0 0.0 0.0 0.00 0.00 0.00 68 1009.4
20260507154949 19 0 0.0 0.0 0.00 0.00 0.00 70 1009.4
20260507154449 19 0 0.0 0.0 0.00 0.00 0.00 69 1009.3
20260507153948 19 0 0.0 0.0 0.00 0.00 0.00 67 1009.4
20260507153448 19 0 0.0 0.0 0.00 0.00 0.00 68 1009.4
20260507152949 19 0 0.0 0.0 0.00 0.00 0.00 65 1009.4
20260507151447 20 0 0.0 0.0 0.00 0.00 0.00 61 1009.2
20260507150948 20 0 0.0 0.0 0.00 0.00 0.00 62 1009.1
20260507150447 21 0 0.0 0.0 0.00 0.00 0.00 61 1009.1
20260507145947 21 0 0.0 0.0 0.00 0.00 0.00 56 1009.1
20260507145447 21 0 0.0 0.0 0.00 0.00 0.00 58 1009.1
20260507144948 21 0 0.0 0.0 0.00 0.00 0.00 57 1009.0
20260507144447 21 0 0.0 0.0 0.00 0.00 0.00 54 1009.0
20260507143949 21 0 0.0 0.0 0.00 0.00 0.00 55 1009.0
20260507143448 21 0 0.0 0.0 0.00 0.00 0.00 55 1009.1
20260507142948 21 0 0.0 0.0 0.00 0.00 0.00 53 1009.0
20260507141948 21 0 0.0 0.0 0.00 0.00 0.00 56 1009.1
20260507140949 21 0 0.0 0.0 0.00 0.00 0.00 63 1009.0
20260507140448 21 0 0.0 0.0 0.00 0.00 0.00 60 1009.0
20260507135948 21 0 0.0 0.0 0.00 0.00 0.00 61 1009.0
20260507135449 21 0 0.0 0.0 0.00 0.00 0.00 62 1009.2
20260507134949 21 0 0.0 0.0 0.00 0.00 0.00 66 1009.1
20260507134449 20 0 0.0 0.0 0.00 0.00 0.00 69 1009.2
20260507133947 20 0 0.0 0.0 0.00 0.00 0.00 70 1009.3
20260507133447 20 0 0.0 0.0 0.00 0.00 0.00 69 1009.4
20260507132949 20 0 0.0 0.0 0.00 0.00 0.00 69 1009.4
20260507132448 20 0 0.0 0.0 0.00 0.00 0.00 70 1009.3
20260507131948 20 0 0.0 0.0 0.00 0.00 0.00 74 1009.3
20260507131448 20 0 0.0 0.0 0.00 0.00 0.00 73 1009.3
20260507130950 18 0 0.0 0.0 0.00 0.00 0.00 77 1009.4
20260507130449 18 0 0.0 0.0 0.00 0.00 0.00 80 1009.4
20260507125448 18 0 0.0 0.0 0.00 0.00 0.00 77 1009.6
20260507123948 19 0 0.0 0.0 0.00 0.00 0.00 67 1009.6
20260507123448 20 0 0.0 0.0 0.00 0.00 0.00 68 1009.6
20260507122948 20 0 0.0 0.0 0.00 0.00 0.00 68 1009.6
20260507122449 20 0 0.0 0.0 0.00 0.00 0.00 67 1009.5
20260507121449 20 0 0.0 0.0 0.00 0.00 0.00 68 1009.7
20260507120949 20 0 0.0 0.0 0.00 0.00 0.00 68 1009.7
20260507120449 19 0 0.0 0.0 0.00 0.00 0.00 68 1009.6
20260507115448 19 0 0.0 0.0 0.00 0.00 0.00 69 1009.7
20260507114948 18 0 0.0 0.0 0.00 0.00 0.00 67 1009.8
20260507114448 19 0 0.0 0.0 0.00 0.00 0.00 68 1009.8
20260507113948 19 0 0.0 0.0 0.00 0.00 0.00 68 1009.7
20260507113449 19 0 0.0 0.0 0.00 0.00 0.00 67 1009.7
20260507112949 19 0 0.0 0.0 0.00 0.00 0.00 67 1009.7
20260507112448 20 0 0.0 0.0 0.00 0.00 0.00 67 1009.7
20260507111949 20 0 0.0 0.0 0.00 0.00 0.00 65 1009.7
20260507111449 20 0 0.0 0.0 0.00 0.00 0.00 65 1009.7
20260507110449 20 0 0.0 0.0 0.00 0.00 0.00 67 1009.8
20260507105950 20 0 0.0 0.0 0.00 0.00 0.00 67 1009.8
20260507105448 20 0 0.0 0.0 0.00 0.00 0.00 67 1009.7
20260507104949 20 0 0.0 0.0 0.00 0.00 0.00 70 1009.7
20260507104449 19 0 0.0 0.0 0.00 0.00 0.00 69 1009.7
20260507103449 19 0 0.0 0.0 0.00 0.00 0.00 70 1009.6
20260507102949 19 0 0.0 0.0 0.00 0.00 0.00 70 1009.6
20260507102448 19 0 0.0 0.0 0.00 0.00 0.00 69 1009.6
20260507101948 18 0 0.0 0.0 0.00 0.00 0.00 71 1009.6
20260507100948 19 0 0.0 0.0 0.00 0.00 0.00 71 1009.7
20260507095449 19 0 0.0 0.0 0.00 0.00 0.00 68 1009.4
20260507094949 20 0 0.0 0.0 0.00 0.00 0.00 70 1009.5
20260507094449 19 0 0.0 0.0 0.00 0.00 0.00 70 1009.4
20260507093949 19 0 0.0 0.0 0.00 0.00 0.00 69 1009.3
20260507093450 19 0 0.0 0.0 0.00 0.00 0.00 70 1009.3
20260507092949 19 0 0.0 0.0 0.00 0.00 0.00 70 1009.3
20260507092449 19 0 0.0 0.0 0.00 0.00 0.00 70 1009.3
20260507091949 19 0 0.0 0.0 0.00 0.00 0.00 72 1009.2
20260507090949 18 0 0.0 0.0 0.00 0.00 0.00 74 1009.1
20260507090449 18 0 0.0 0.0 0.00 0.00 0.00 73 1009.1
20260507085949 18 0 0.0 0.0 0.00 0.00 0.00 73 1009.0
20260507085448 18 0 0.0 0.0 0.00 0.00 0.00 73 1008.9
20260507084449 18 0 0.0 0.0 0.00 0.00 0.00 73 1008.9
20260507083950 18 0 0.0 0.0 0.00 0.00 0.00 74 1008.8
20260507083450 18 0 0.0 0.0 0.00 0.00 0.00 76 1008.7
20260507082949 17 0 0.0 0.0 0.00 0.00 0.00 77 1008.7
20260507082450 17 0 0.0 0.0 0.00 0.00 0.00 77 1008.6
20260507081950 17 0 0.0 0.0 0.00 0.00 0.00 76 1008.5
20260507081449 17 0 0.0 0.0 0.00 0.00 0.00 76 1008.5
20260507080949 17 0 0.0 0.0 0.00 0.00 0.00 75 1008.5
20260507080449 18 0 0.0 0.0 0.00 0.00 0.00 73 1008.5
20260507075949 18 0 0.0 0.0 0.00 0.00 0.00 74 1008.5
20260507075449 18 0 0.0 0.0 0.00 0.00 0.00 76 1008.4
20260507074951 17 0 0.0 0.0 0.00 0.00 0.00 76 1008.4
20260507073949 17 0 0.0 0.0 0.00 0.00 0.00 77 1008.1
20260507073449 17 0 0.0 0.0 0.00 0.00 0.00 78 1008.0
20260507072950 17 0 0.0 0.0 0.00 0.00 0.00 78 1008.0
20260507072450 17 0 0.0 0.0 0.00 0.00 0.00 79 1008.0
20260507071450 16 0 0.0 0.0 0.00 0.00 0.00 78 1008.0
20260507070949 17 0 0.0 0.0 0.00 0.00 0.00 78 1007.8
20260507070450 17 0 0.0 0.0 0.00 0.00 0.00 79 1007.7
20260507065951 17 0 0.0 0.0 0.00 0.00 0.00 78 1007.6
20260507065451 17 0 0.0 0.0 0.00 0.00 0.00 79 1007.7
20260507064950 16 0 0.0 0.0 0.00 0.00 0.00 78 1007.7
20260507064450 16 0 0.0 0.0 0.00 0.00 0.00 79 1007.8
20260507063949 16 0 0.0 0.0 0.00 0.00 0.00 78 1007.7
20260507063449 16 0 0.0 0.0 0.00 0.00 0.00 79 1007.6
20260507062450 16 0 0.0 0.0 0.00 0.00 0.00 80 1007.6
20260507061949 16 0 0.0 0.0 0.00 0.00 0.00 80 1007.6
20260507061450 16 0 0.0 0.0 0.00 0.00 0.00 81 1007.5
20260507060449 15 0 0.0 0.0 0.00 0.00 0.00 81 1007.5
20260507055949 15 0 0.0 0.0 0.00 0.00 0.00 81 1007.5
20260507055450 15 0 0.0 0.0 0.00 0.00 0.00 81 1007.4
20260507054949 15 0 0.0 0.0 0.00 0.00 0.00 81 1007.3
20260507054450 15 0 0.0 0.0 0.00 0.00 0.00 81 1007.3
20260507053951 15 0 0.0 0.0 0.00 0.00 0.00 80 1007.2
20260507052951 15 0 0.0 0.0 0.00 0.00 0.00 80 1007.1
20260507052450 15 0 0.0 0.0 0.00 0.00 0.00 81 1007.1
20260507051950 15 0 0.0 0.0 0.00 0.00 0.00 81 1007.0
20260507051450 15 0 0.0 0.0 0.00 0.00 0.00 81 1007.0
20260507045950 15 0 0.0 0.0 0.00 0.00 0.00 80 1006.8
20260507045449 15 0 0.0 0.0 0.00 0.00 0.00 80 1006.8
20260507044951 15 0 0.0 0.0 0.00 0.00 0.00 80 1006.7
20260507044449 15 0 0.0 0.0 0.00 0.00 0.00 80 1006.7
20260507043950 15 0 0.0 0.0 0.00 0.00 0.00 80 1006.6
20260507043450 15 0 0.0 0.0 0.00 0.00 0.00 80 1006.5
20260507042950 15 0 0.0 0.0 0.00 0.00 0.00 80 1006.5
20260507041950 15 0 0.0 0.0 0.00 0.00 0.00 81 1006.4
20260507041449 15 0 0.0 0.0 0.00 0.00 0.00 82 1006.4
20260507040951 14 0 0.0 0.0 0.00 0.00 0.00 83 1006.3
20260507040451 14 0 0.0 0.0 0.00 0.00 0.00 83 1006.2
20260507035950 14 0 0.0 0.0 0.00 0.00 0.00 84 1006.2
20260507035451 13 0 0.0 0.0 0.00 0.00 0.00 85 1006.1
20260507034949 13 0 0.0 0.0 0.00 0.00 0.00 84 1006.1
20260507034449 13 0 0.0 0.0 0.00 0.00 0.00 85 1006.2
20260507033450 13 0 0.0 0.0 0.00 0.00 0.00 85 1006.0
20260507032450 13 0 0.0 0.0 0.00 0.00 0.00 86 1005.8
20260507031450 13 0 0.0 0.0 0.00 0.00 0.00 85 1005.8
20260507030950 13 0 0.0 0.0 0.00 0.00 0.00 85 1005.7
20260507025950 13 0 0.0 0.0 0.00 0.00 0.00 85 1005.6
20260507025450 13 0 0.0 0.0 0.00 0.00 0.00 85 1005.6
20260507024450 13 0 0.0 0.0 0.00 0.00 0.00 85 1005.7
20260507023950 13 0 0.0 0.0 0.00 0.00 0.00 85 1005.7
20260507023451 13 0 0.0 0.0 0.00 0.00 0.00 85 1005.6
20260507022951 13 0 0.0 0.0 0.00 0.00 0.00 85 1005.6
20260507022452 13 0 0.0 0.0 0.00 0.00 0.00 85 1005.6
20260507021950 13 0 0.0 0.0 0.00 0.00 0.00 85 1005.6
20260507020950 12 0 0.0 0.0 0.00 0.00 0.00 85 1005.5
20260507020451 12 0 0.0 0.0 0.00 0.00 0.00 85 1005.5
20260507015952 12 0 0.0 0.0 0.00 0.00 0.00 85 1005.4
20260507015450 12 0 0.0 0.0 0.00 0.00 0.00 85 1005.4
20260507014950 12 0 0.0 0.0 0.00 0.00 0.00 84 1005.4
20260507013950 12 0 0.0 0.0 0.00 0.00 0.00 84 1005.2
20260507013450 12 0 0.0 0.0 0.00 0.00 0.00 83 1005.3
20260507012950 12 0 0.0 0.0 0.00 0.00 0.00 83 1005.4
20260507011950 12 0 0.0 0.0 0.00 0.00 0.00 82 1005.4
20260507011450 13 0 0.0 0.0 0.00 0.00 0.00 82 1005.4
20260507010951 13 0 0.0 0.0 0.00 0.00 0.00 81 1005.4
20260507010452 13 0 0.0 0.0 0.00 0.00 0.00 80 1005.3
20260507005950 13 0 0.0 0.0 0.00 0.00 0.00 80 1005.2
20260507005450 13 0 0.0 0.0 0.00 0.00 0.00 79 1005.3
20260507004952 13 0 0.0 0.0 0.00 0.00 0.00 79 1005.3
20260507004450 14 0 0.0 0.0 0.00 0.00 0.00 79 1005.3
20260507003951 14 0 0.0 0.0 0.00 0.00 0.00 78 1005.2
20260507003451 14 0 0.0 0.0 0.00 0.00 0.00 78 1005.3
20260507002951 14 0 0.0 0.0 0.00 0.00 0.00 78 1005.2
20260507002452 14 0 0.0 0.0 0.00 0.00 0.00 77 1005.2
20260507001951 15 0 0.0 0.0 0.00 0.00 0.00 77 1005.2
20260507001451 15 0 0.0 0.0 0.00 0.00 0.00 77 1005.1
20260507000950 15 0 0.0 0.0 0.00 0.00 0.00 76 1005.1
20260507000451 15 0 0.0 0.0 0.00 0.00 0.00 75 1005.2
20260506235951 16 0 0.0 0.0 0.00 0.00 0.00 74 1005.2
20260506235450 16 0 0.0 0.0 0.00 0.00 0.00 73 1005.2
20260506233950 16 0 0.0 0.0 0.00 0.00 0.00 72 1005.3
20260506233451 16 0 0.0 0.0 0.00 0.00 0.00 72 1005.2
20260506232952 16 0 0.0 0.0 0.00 0.00 0.00 71 1005.2
20260506231951 17 0 0.0 0.0 0.00 0.00 0.00 70 1005.3
20260506231450 17 0 0.0 0.0 0.00 0.00 0.00 69 1005.2
20260506230952 17 0 0.0 0.0 0.00 0.00 0.00 69 1005.3
20260506230451 17 0 0.0 0.0 0.00 0.00 0.00 69 1005.3
20260506225951 17 0 0.0 0.0 0.00 0.00 0.00 68 1005.3
20260506225451 17 0 0.0 0.0 0.00 0.00 0.00 68 1005.3
20260506224950 18 0 0.0 0.0 0.00 0.00 0.00 68 1005.3
20260506224450 18 0 0.0 0.0 0.00 0.00 0.00 68 1005.3
20260506223952 17 0 0.0 0.0 0.00 0.00 0.00 68 1005.2
20260506223451 17 0 0.0 0.0 0.00 0.00 0.00 69 1005.3
20260506222952 17 0 0.0 0.0 0.00 0.00 0.00 69 1005.3
20260506221951 16 0 0.0 0.0 0.00 0.00 0.00 71 1005.3
20260506221451 16 0 0.0 0.0 0.00 0.00 0.00 71 1005.2
20260506220951 16 0 0.0 0.0 0.00 0.00 0.00 71 1005.1
20260506220453 16 0 0.0 0.0 0.00 0.00 0.00 72 1005.1
20260506215952 16 0 0.0 0.0 0.00 0.00 0.00 73 1005.2
20260506215452 16 0 0.0 0.0 0.00 0.00 0.00 74 1005.2
20260506214952 16 0 0.0 0.0 0.00 0.00 0.00 75 1005.2
20260506214452 16 0 0.0 0.0 0.00 0.00 0.00 74 1005.2
20260506213452 16 0 0.0 0.0 0.00 0.00 0.00 73 1005.2
20260506212952 16 0 0.0 0.0 0.00 0.00 0.00 72 1005.2
20260506212451 16 0 0.0 0.0 0.00 0.00 0.00 72 1005.3
20260506210951 16 0 0.0 0.0 0.00 0.00 0.00 71 1005.3
20260506210451 17 0 0.0 0.0 0.00 0.00 0.00 70 1005.3
20260506205452 17 0 0.0 0.0 0.00 0.00 0.00 68 1005.2
20260506204951 17 0 0.0 0.0 0.00 0.00 0.00 68 1005.2
20260506204452 17 0 0.0 0.0 0.00 0.00 0.00 68 1005.1